Regional Weather Roundup
Issued by NWS

Home | Current Version | Previous Version | Graphics & Text | Print | Product List | Glossary On
Versions: 1 2 3 4 5 6 7 8 9 10 11 12 13 14 15 16 17 18 19 20 21 22 23 24 25 26 27 28 29 30 31 32 33 34 35 36 37 38 39 40 41 42 43 44 45 46 47 48 49 50
000
ASUS43 KFSD 201302
RWRSD

WEATHER ROUNDUP FOR SOUTH DAKOTA
NATIONAL WEATHER SERVICE SIOUX FALLS SD
800 AM CDT MON OCT 20 2014

NOTE: "FAIR" INDICATES FEW OR NO CLOUDS BELOW 12,000 FEET WITH NO
SIGNIFICANT WEATHER AND/OR OBSTRUCTIONS TO VISIBILITY.


SDZ001>005-009-010-012>017-201400-
NORTHWEST AND NORTH CENTRAL SOUTH DAKOTA

CITY           SKY/WX    TMP DP  RH WIND       PRES   REMARKS
FAITH            N/A     45  37  73 SE12      30.05F
MOBRIDGE       PTCLDY    35  33  92 CALM      30.06R
$$

SDZ012>016-024>037-041>051-057-063-072>074-201400-
SOUTHWEST AND SOUTH CENTRAL SOUTH DAKOTA

CITY           SKY/WX    TMP DP  RH WIND       PRES   REMARKS
RAPID CTY ARPT CLEAR     40  35  83 SE5       30.04F
PIERRE         PTCLDY    35  32  88 CALM      30.08R
CUSTER         CLEAR     38  33  82 W5        30.12F
ELLSWORTH AFB  CLEAR     47  38  68 S7        30.03F
PHILIP         CLEAR     33  30  88 CALM      30.07F
PINE RIDGE     PTCLDY    35  32  88 NW6       30.07F
SPEARFISH      FAIR      45  36  70 CALM      30.03F
WINNER         FAIR      43  35  73 CALM      30.09S
$$

SDZ004>011-016>023-039-040-201400-
NORTHEAST SOUTH DAKOTA

CITY           SKY/WX    TMP DP  RH WIND       PRES   REMARKS
ABERDEEN       CLEAR     29  27  92 CALM      30.08R
WATERTOWN      CLEAR     38  35  89 CALM      30.06R
SISSETON         N/A     34  32  92 N3        30.05R
$$

SDZ017-020-022-023-036>040-048>070-201400-
SOUTHEAST SOUTH DAKOTA

CITY           SKY/WX    TMP DP  RH WIND       PRES   REMARKS
SIOUX FALLS    CLEAR     41  36  82 CALM      30.06S
HURON          PTCLDY    31  30  96 CALM      30.08R
CHAMBERLAIN    CLEAR     33  31  90 CALM      30.09S
MITCHELL       CLEAR     38  34  85 W3        30.09S
YANKTON        CLEAR     39  36  87 NW6       30.09R
$$

ABBREVIATIONS USED IN REMARKS
   TC - TEMPERATURE IN CELSIUS
  WCI - WIND CHILL INDEX
   HX - HEAT INDEX
  VSB - VISIBILITY



USA.gov is the U.S. government's official web portal to all federal, state and local government web resources and services.